Regional Weather Roundup
Issued by NWS

Home | Current Version | Previous Version | Text Only | Print | Product List | Glossary On
Versions: 1 2 3 4 5 6 7 8 9 10 11 12 13 14 15 16 17 18 19 20 21 22 23 24 25 26 27 28 29 30 31 32 33 34 35 36 37 38 39 40 41 42 43 44 45 46 47 48 49 50
000
ASUS44 KLIX 211410
RWRLA
LOUISIANA WEATHER ROUNDUP
NATIONAL WEATHER SERVICE NEW ORLEANS LA
900 AM CDT MON APR 21 2014

NOTE: "FAIR" INDICATES FEW OR NO CLOUDS BELOW 12,000 FEET WITH NO
      SIGNIFICANT WEATHER AND/OR OBSTRUCTIONS TO VISIBILITY.
      SKY/WX - SKY CONDITION AND SIGNIFICANT WEATHER.
      TMP - AIR TEMPERATURE.    DP   - DEWPOINT TEMPERATURE.
      RH  - RELATIVE HUMIDITY.  PRES - PRESSURE.
      HX  - HEAT INDEX.         WCI  - WIND CHILL INDEX.

*  THESE STATIONS ARE NOT NWS OR FAA STATIONS AND ARE NOT UNDER
   NWS QUALITY CONTROL.

LAZ040-048-061>063-065-066-069-211500-
SOUTHEAST LOUISIANA

CITY           SKY/WX    TMP DP  RH WIND       PRES   REMARKS
N.O. AUDUBON     N/A     70  59  68 MISG        N/A
N.O. INTL ARPT MOSUNNY   67  59  75 E7        30.14F
N.O. LAKEFRONT PTSUNNY   66  59  78 E7        30.15F
N.O. DOWNTOWN* FAIR      66  55  68 NE5       30.15F
SLIDELL        SUNNY     66  59  78 SE7       30.15S
BATON ROUGE    SUNNY     69  60  73 S8        30.13F
BOOTHVILLE     CLOUDY    64  58  80 NE5       30.16S
BELLE CHASSE   PTSUNNY   67  58  73 E8        30.14F
BOGALUSA*        N/A     64  62  90 CALM      30.16F
GALLIANO*      MOSUNNY   68  59  73 NE7       30.15S
NEW ROADS*     CLOUDY    64  64  97 SE7       30.13F FOG
GONZALES*      FAIR      67  63  86 S6        30.14S
HAMMOND*       SUNNY     68  59  73 SE5       30.15F
HOUMA*         MOSUNNY   68  59  73 SE3       30.16R
PORT FOURCHON* SUNNY     66  59  77 E8G17     30.16R

$$

LAZ041-044-053-054-211500-
SOUTHWEST LOUISIANA

CITY           SKY/WX    TMP DP  RH WIND       PRES   REMARKS
LAKE CHARLES   SUNNY     68  65  90 CALM      30.11S
LAFAYETTE      CLOUDY    65  65 100 SE5       30.13S FOG
PATTERSON      SUNNY     68  64  88 S6        30.17R
SALT POINT       N/A     70  63  78 SE9       30.13S
NEW IBERIA     PTSUNNY   67  63  87 SE9       30.14S
CHENAULT AIRPK SUNNY     64  64 100 CALM      30.12S

$$

LAZ027-028-211500-
CENTRAL LOUISIANA

CITY           SKY/WX    TMP DP  RH WIND       PRES   REMARKS
FORT POLK      SUNNY     67  56  67 SW5       30.10R
ALEXANDRIA INT SUNNY     66  58  75 SE7       30.09R
ALEXANDRIA     SUNNY     66  57  72 VRB3      30.11R

$$

LAZ001-002-211500-
NORTHWEST LOUISIANA

CITY           SKY/WX    TMP DP  RH WIND       PRES   REMARKS
SHREVEPORT     PTSUNNY   67  57  70 SW9       30.06R
BARKSDALE AFB  MOSUNNY   69  56  62 SW10      30.06S
DTN SHREVEPORT CLOUDY    67  56  67 SW14      30.06R

$$

LAZ014-016-211500-
NORTHEAST LOUISIANA

CITY           SKY/WX    TMP DP  RH WIND       PRES   REMARKS
MONROE         SUNNY     67  58  72 S7        30.09R
TALLULAH       SUNNY     67  59  75 S8        30.10F

$$




USA.gov is the U.S. government's official web portal to all federal, state and local government web resources and services.